Hourly Data Report for July 24, 2021

POND INLET A
NUNAVUT
Current Station Operator: NAVCAN

72°41'22.000" N
77°58'08.000" W
61.60 m
2403206
71095
YIO

Download Data

Hourly Data (July 2021)
Hourly Data Report for July 24, 2021
TIME
LST
Temp Definition
°C
Dew Point Definition
°C
Rel Hum Definition
%
Precip. Amount Definition
mm

Wind Dir Definition
10's deg

Wind Spd Definition
km/h
Visibility Definition
km
Stn Press Definition
kPa
Hmdx Definition


Wind Chill Definition


Weather Definition


00:00 5.3 1.0 74 0.0 4 5 16.1 99.64     LegendNANA
01:00 4.4 -0.3 72 0.0 13 4 16.1 99.59     LegendNANA
02:00 4.1 0.4 77 0.0   0 16.1 99.57     LegendNANA
03:00 3.0 1.3 89 0.0 22 8 16.1 99.56     LegendNANA
04:00 4.8 0.4 73 0.0   0 16.1 99.57     LegendNANA
05:00 5.0 0.6 73 0.0   0 16.1 99.54     LegendNANA
06:00 6.4 2.0 73 0.0 LegendMM 4 16.1 99.53     LegendNANA
07:00 7.4 0.8 63 0.0 3 8 16.1 99.49     LegendNANA
08:00 7.6 0.5 61 0.0 6 17 16.1 99.45     LegendNANA
09:00 7.7 0.8 61 0.0 6 22 16.1 99.41     LegendNANA
10:00 7.8 0.6 60 0.0 5 24 16.1 99.38     LegendNANA
11:00 7.6 0.8 62 0.0 5 30 16.1 99.33     LegendNANA
12:00 7.8 1.0 62 0.0 5 32 16.1 99.32     LegendNANA
13:00 7.4 0.6 62 0.0 5 34 16.1 99.30     LegendNANA
14:00 7.6 0.3 60 0.0 5 37 16.1 99.28     LegendNANA
15:00 7.5 0.2 60 0.0 5 35 16.1 99.27     LegendNANA
16:00 7.2 -0.1 60 0.0 5 35 16.1 99.24     LegendNANA
17:00 6.7 -0.4 61 0.0 6 37 16.1 99.21     LegendNANA
18:00 6.6 -0.9 59 0.0 6 30 16.1 99.20     LegendNANA
19:00 4.4 -0.2 72 0.0 5 37 16.1 99.22     LegendNANA
20:00 3.5 -0.4 76 0.0 6 35 16.1 99.23     LegendNANA
21:00 2.9 -0.6 78 0.0 6 41 16.1 99.19     LegendNANA
22:00 2.6 -1.2 76 0.0 5 41 16.1 99.16     LegendNANA
23:00 2.9 -1.3 74 0.0 5 35 16.1 99.15     LegendNANA

Notes on Data Quality.

Legend

  • E = Estimated
  • M = Missing
  • NA = Not Available*
  • [empty] = Indicates an unobserved value
Date modified: